[[{"header":{"parameterUnit":"m.s-1","parameterCategory":1,"la1":30.2991,"la2":30.254,"lo1":-89.0895,"lo2":-89.0444,"dy":0.0017,"dx":0.0017,"nx":28,"ny":28,"refTime":"2024-07-19T09:00:00:Z","depth":0,"parameterNumber":2,"parameterNumberName":"U-component_of_WINDS"},"data":[0,0,0,0,0,0,0,0,0,0,0,0,0,0,0,0,0,0,0,0,0,0,0,0,0,0,0,0,0,0,0,0,0,0,0,0,0,0,0,0,0,0,0,0,0,0,0,0,0,0,0,0,0,0,0,0,0,0,0.9029,0.9028,0,0.9012,0.9011,0.9011,0.898,0.898,0.8979,0.8979,0.8962,0.8962,0.8962,0,0,0,0,0,0,0,0,0,0,0,0,0,0.9037,0.9037,0.9029,0.9028,0.9028,0.9012,0.9011,0.9011,0.898,0.898,0.8979,0.8978,0.8962,0.8962,0.8962,0,0,0,0,0,0,0,0,0,0,0,0,0,0.9028,0.9037,0.9029,0.9011,0.9009,0.9012,0.9011,0.9011,0.8981,0.898,0.8979,0.8978,0.8962,0.8962,0.8962,0.8981,0,0,0.8963,0.8963,0,0,0,0,0,0,0,0,0.9028,0.9028,0.9014,0.9012,0.901,0.8997,0.9008,0.9001,0.8981,0.8991,0.8979,0.8978,0.8974,0.8974,0.8972,0.898,0.898,0.8963,0.8963,0.8963,0.8963,0,0,0,0,0,0,0,0.9029,0.9028,0.9022,0.9014,0.9011,0.9004,0.9002,0.9007,0.8988,0.899,0.8988,0.8987,0.8973,0.8972,0.8972,0.8979,0.8963,0.8963,0.8963,0.8963,0.9004,0.9005,0,0,0,0,0,0,0.9032,0.9029,0.9022,0.9021,0.9017,0.9005,0.9003,0.9002,0.8988,0.8985,0.8987,0.8985,0.8972,0.8972,0.8971,0.8993,0.8963,0.8963,0.8963,0.9003,0.9005,0.9006,0,0,0,0,0,0,0.9032,0.9032,0.9023,0.9025,0.9023,0.9006,0.9006,0.9002,0.9001,0.8986,0.8982,0.8989,0.8972,0.8971,0.8979,0.8992,0.8963,0.8963,0.9002,0.9004,0.9005,0.9037,0,0,0,0,0,0,0.9033,0.9032,0.9038,0.9025,0.9023,0.9031,0.9007,0.9003,0.9001,0.8999,0.8987,0.8984,0.8971,0.8979,0.898,0.8992,0.8963,0.9001,0.9003,0.9005,0.9035,0.9039,0.9043,0,0,0,0,0,0.9033,0.9047,0.9039,0.9038,0.903,0.9032,0.9031,0.9015,0.9003,0.9009,0.9,0.8984,0.8991,0.898,0.898,0.8993,0.9,0.9002,0.9005,0.9033,0.9038,0.9043,0,0,0,0,0,0,0.9062,0.9045,0.9035,0.9046,0.9041,0.9026,0.9034,0.9021,0.9019,0.9017,0.8998,0.8996,0.9007,0.9001,0.8989,0.9012,0.8993,0.8996,0.9015,0.902,0.9024,0.9025,0.8964,0,0,0,0,0,0.907,0.9072,0.9057,0.9068,0.9066,0.9051,0.9051,0.904,0.9033,0.9031,0.9022,0.9017,0.9018,0.9019,0.9019,0.9034,0.9032,0.9043,0.9048,0.9051,0.9053,0.9062,0.9068,0.9013,0.9013,0.9013,0,0,0.9086,0.9077,0.9079,0.9074,0.9068,0.9072,0.9049,0.9053,0.9055,0.9031,0.9039,0.9033,0.9026,0.9038,0.9043,0.9034,0.9068,0.9054,0.9057,0.9057,0.9065,0.907,0.9075,0.9015,0.9014,0.9014,0,0,0.9116,0.9109,0.9118,0.9114,0.9106,0.9096,0.9099,0.9087,0.9082,0.9089,0.9072,0.9075,0.9077,0.9074,0.9072,0.9105,0.9091,0.9105,0.9127,0.9137,0.9141,0.9145,0.9157,0.9161,0.9107,0.9108,0.9108,0,0.9136,0.914,0.9124,0.913,0.9129,0.9108,0.9117,0.9114,0.9107,0.9107,0.9097,0.91,0.9094,0.9106,0.9114,0.9114,0.9116,0.9105,0.9142,0.9145,0.9148,0.9159,0.9164,0.9109,0.9109,0.9109,0.9109,0,0.9166,0.9169,0.9177,0.9171,0.9171,0.9179,0.9165,0.9167,0.9157,0.9149,0.9158,0.9151,0.9149,0.9152,0.9141,0.9163,0.9157,0.9145,0.9126,0.9156,0.9166,0.917,0.9112,0.9111,0.9111,0.911,0,0,0.9211,0.9199,0.9202,0.92,0.9191,0.9194,0.9202,0.9201,0.9203,0.92,0.9206,0.921,0.9199,0.9197,0.9187,0.9195,0.9222,0.9181,0.9181,0.9189,0.9247,0.9256,0.9261,0.9214,0.9215,0.9215,0.9247,0,0.9239,0.925,0.9238,0.9252,0.9256,0.9238,0.9245,0.9241,0.9235,0.9237,0.923,0.9233,0.9218,0.9217,0.9225,0.9217,0.9233,0.9215,0.922,0.922,0.9221,0.9266,0.9275,0.9306,0.9251,0.9252,0.9252,0,0.9272,0.9271,0.9286,0.9279,0.928,0.9286,0.9285,0.9288,0.9284,0.9279,0.9279,0.9267,0.9275,0.9258,0.927,0.9258,0.926,0.9257,0.9258,0.9257,0.9237,0.9266,0.9315,0.9319,0.9258,0.9258,0.9258,0,0.9304,0.9307,0.9316,0.9315,0.9306,0.9312,0.9308,0.9304,0.9305,0.9305,0.9306,0.9307,0.9307,0.9309,0.9299,0.9287,0.9312,0.9294,0.9309,0.9309,0.9313,0.9313,0.9362,0.9316,0.9316,0.9316,0.9316,0,0.9336,0.9345,0.933,0.9336,0.9347,0.9334,0.9346,0.9341,0.9338,0.9343,0.9328,0.9334,0.932,0.9325,0.9317,0.9328,0.9329,0.9325,0.9323,0.9326,0.9326,0.9326,0.9323,0.9317,0.9317,0.9317,0.9316,0,0.9372,0.9362,0.9371,0.9364,0.9362,0.9371,0.9364,0.937,0.9364,0.9371,0.9372,0.9362,0.9367,0.9357,0.936,0.9355,0.9372,0.9366,0.9373,0.9371,0.9386,0.9385,0.9436,0.9442,0.9393,0.9393,0.9394,0,0.9392,0.9399,0.9393,0.9396,0.9393,0.9398,0.9399,0.9387,0.939,0.9388,0.9394,0.9398,0.94,0.9409,0.9403,0.9406,0.94,0.9418,0.94,0.9404,0.94,0.94,0.9401,0.9421,0.9422,0.9422,0.9423,0,0.9429,0.9425,0.9427,0.9429,0.9431,0.9432,0.9431,0.9435,0.9422,0.9426,0.9431,0.9433,0.9437,0.9442,0.9444,0.9442,0.9431,0.9429,0.9432,0.9435,0.9438,0.9437,0.9382,0.9427,0.9427,0.9426,0.9426,0.9426,0.9458,0.9464,0.9461,0.9465,0.9464,0.9464,0.947,0.9465,0.9469,0.9471,0.9465,0.9472,0.947,0.9472,0.9471,0.9478,0.9469,0.9475,0.9476,0.9477,0.9479,0.9439,0.9478,0.9478,0.9478,0.9478,0.9478,0,0.9494,0.9492,0.9496,0.9496,0.95,0.949,0.949,0.9493,0.95,0.9499,0.9502,0.9509,0.9514,0.9509,0.9514,0.952,0.9515,0.9521,0.952,0.952,0.9486,0.9483,0.9525,0.9525,0.9525,0.9525,0.9525,0.9525,0.9513,0.9523,0.9519,0.953,0.9527,0.9534,0.9535,0.9536,0.9536,0.9544,0.9548,0.9545,0.9544,0.9548,0.9553,0.9552,0.9554,0.9562,0.9559,0.9527,0.9522,0.9518,0.9514,0.9563,0.9563,0.9592,0.9592,0.9592]},{"header":{"parameterUnit":"m.s-1","parameterCategory":1,"la1":30.2991,"la2":30.254,"lo1":-89.0895,"lo2":-89.0444,"dy":0.0017,"dx":0.0017,"nx":28,"ny":28,"refTime":"2024-07-19T09:00:00:Z","depth":0,"parameterNumber":3,"parameterNumberName":"V-component_of_WINDS"},"data":[0,0,0,0,0,0,0,0,0,0,0,0,0,0,0,0,0,0,0,0,0,0,0,0,0,0,0,0,0,0,0,0,0,0,0,0,0,0,0,0,0,0,0,0,0,0,0,0,0,0,0,0,0,0,0,0,0,0,1.1945,1.1944,0,1.194,1.1939,1.1939,1.1922,1.1922,1.1921,1.1921,1.1913,1.1914,1.1914,0,0,0,0,0,0,0,0,0,0,0,0,0,1.1939,1.1939,1.1945,1.1944,1.1944,1.194,1.1939,1.1939,1.1922,1.1922,1.1921,1.1921,1.1913,1.1913,1.1914,0,0,0,0,0,0,0,0,0,0,0,0,0,1.1938,1.1939,1.1945,1.1935,1.1934,1.194,1.1939,1.1939,1.1922,1.1922,1.1921,1.192,1.1913,1.1913,1.1914,1.1927,0,0,1.1914,1.1915,0,0,0,0,0,0,0,0,1.1938,1.1938,1.1937,1.1936,1.1935,1.1931,1.1935,1.1935,1.1922,1.1927,1.1921,1.192,1.1919,1.1919,1.1919,1.1926,1.1926,1.1914,1.1915,1.1915,1.1915,0,0,0,0,0,0,0,1.1938,1.1939,1.1942,1.1937,1.1936,1.1931,1.1931,1.1935,1.1926,1.1926,1.1925,1.1925,1.1919,1.1919,1.1919,1.1926,1.1914,1.1915,1.1915,1.1915,1.1946,1.1947,0,0,0,0,0,0,1.194,1.1939,1.1943,1.1942,1.1935,1.1932,1.1931,1.1933,1.1926,1.1925,1.1925,1.1924,1.1919,1.1919,1.1919,1.1935,1.1915,1.1915,1.1915,1.1946,1.1947,1.1947,0,0,0,0,0,0,1.194,1.194,1.1943,1.194,1.194,1.1933,1.1935,1.1933,1.1933,1.1926,1.1924,1.1927,1.1919,1.1918,1.1926,1.1935,1.1915,1.1915,1.1945,1.1946,1.1947,1.1968,0,0,0,0,0,0,1.194,1.194,1.1945,1.1941,1.194,1.195,1.1935,1.1933,1.1934,1.1932,1.1927,1.1925,1.1918,1.1926,1.1926,1.1935,1.1915,1.1944,1.1945,1.1947,1.1966,1.1969,1.1972,0,0,0,0,0,1.194,1.195,1.1945,1.1946,1.1946,1.195,1.195,1.1942,1.1935,1.194,1.1935,1.1926,1.1934,1.1926,1.1927,1.1936,1.1943,1.1945,1.1947,1.1965,1.1969,1.1972,0,0,0,0,0,0,1.1954,1.1949,1.1944,1.1953,1.1953,1.1947,1.1953,1.1946,1.1947,1.1945,1.1935,1.1934,1.1943,1.194,1.1932,1.195,1.1937,1.1939,1.1951,1.1955,1.1958,1.1958,1.1916,0,0,0,0,0,1.1959,1.1963,1.1958,1.1967,1.1967,1.196,1.1962,1.1956,1.1955,1.1954,1.195,1.1948,1.1951,1.1953,1.1954,1.1966,1.1965,1.1973,1.1976,1.1978,1.198,1.1988,1.1992,1.1952,1.1952,1.1952,0,0,1.1967,1.1965,1.1968,1.197,1.1969,1.1974,1.196,1.1965,1.1969,1.1954,1.1962,1.1959,1.1957,1.1967,1.1971,1.1965,1.1991,1.198,1.1982,1.1982,1.199,1.1994,1.1997,1.1954,1.1953,1.1953,0,0,1.1986,1.1985,1.1993,1.1993,1.1992,1.1988,1.199,1.1987,1.1985,1.1993,1.1983,1.1987,1.1991,1.1991,1.1991,1.2014,1.2006,1.2015,1.203,1.2038,1.2041,1.2044,1.2053,1.2057,1.2016,1.2016,1.2016,0,1.1997,1.2004,1.1998,1.2004,1.2006,1.1996,1.2004,1.2004,1.2004,1.2005,1.1998,1.2005,1.2003,1.2014,1.202,1.202,1.2023,1.2015,1.2041,1.2044,1.2046,1.2055,1.2059,1.2018,1.2017,1.2017,1.2017,0,1.2019,1.2024,1.2031,1.2033,1.2035,1.2042,1.2037,1.2041,1.2036,1.2033,1.2042,1.2039,1.2042,1.2044,1.2038,1.2055,1.2052,1.2043,1.2031,1.2052,1.206,1.2063,1.2019,1.2019,1.2019,1.2018,0,0,1.2044,1.2045,1.2047,1.2049,1.2049,1.2053,1.2061,1.2065,1.2069,1.2069,1.2076,1.2082,1.2075,1.2076,1.207,1.2078,1.2098,1.2069,1.2068,1.2075,1.2119,1.2125,1.2129,1.2093,1.2094,1.2094,1.2119,0,1.2063,1.2077,1.2073,1.2087,1.2093,1.2085,1.2092,1.2093,1.2091,1.2096,1.2094,1.2099,1.2089,1.209,1.2096,1.2094,1.2107,1.2092,1.21,1.21,1.2101,1.2133,1.2139,1.2163,1.2122,1.2123,1.2123,0,1.2086,1.209,1.2105,1.2107,1.2109,1.2116,1.2121,1.2125,1.2127,1.2125,1.2128,1.2122,1.2131,1.2119,1.2132,1.2122,1.2125,1.2125,1.2126,1.2126,1.2113,1.2135,1.217,1.2174,1.2128,1.2128,1.2127,0,1.2104,1.2113,1.2125,1.2126,1.2128,1.2134,1.2134,1.2136,1.2139,1.2143,1.2146,1.215,1.2153,1.2157,1.2153,1.2144,1.2167,1.2154,1.2166,1.2167,1.2171,1.2171,1.2208,1.2172,1.2172,1.2172,1.2172,0,1.2126,1.2136,1.2133,1.214,1.2152,1.2148,1.2159,1.2159,1.2161,1.2169,1.2161,1.2168,1.2162,1.2169,1.2166,1.2178,1.2179,1.2178,1.2177,1.2179,1.2179,1.2181,1.2179,1.2173,1.2173,1.2173,1.2173,0,1.2148,1.2146,1.2158,1.2161,1.2161,1.217,1.2172,1.2179,1.2178,1.2187,1.2189,1.2187,1.2195,1.2192,1.2199,1.2198,1.2214,1.221,1.2213,1.2213,1.2226,1.2225,1.2265,1.2271,1.2231,1.2232,1.2232,0,1.2161,1.2169,1.2173,1.2179,1.2181,1.2188,1.2193,1.2189,1.2194,1.2199,1.2206,1.2213,1.2219,1.2232,1.2232,1.2238,1.2235,1.2249,1.2236,1.2239,1.2237,1.2237,1.2238,1.2252,1.2252,1.2252,1.2253,0,1.2186,1.2186,1.2193,1.2201,1.2207,1.2212,1.2217,1.2222,1.2219,1.2225,1.2234,1.2239,1.2248,1.2256,1.2263,1.2264,1.2259,1.2257,1.2261,1.2262,1.2265,1.2265,1.2221,1.2256,1.2256,1.2255,1.2255,1.2255,1.2205,1.2213,1.2218,1.2227,1.2231,1.2236,1.2244,1.2245,1.2252,1.2261,1.2259,1.2269,1.2274,1.2282,1.2285,1.2293,1.2288,1.2292,1.2294,1.2295,1.2297,1.2263,1.2294,1.2294,1.2294,1.2294,1.2294,0,1.2231,1.2235,1.2243,1.2251,1.2259,1.2254,1.226,1.2267,1.2277,1.2281,1.2288,1.23,1.2309,1.231,1.2319,1.2326,1.2324,1.2328,1.2328,1.2328,1.2301,1.2298,1.233,1.233,1.233,1.233,1.233,1.233,1.2245,1.2259,1.226,1.2276,1.228,1.2291,1.2295,1.2301,1.2305,1.2319,1.2327,1.2328,1.2332,1.2342,1.235,1.235,1.2354,1.236,1.2359,1.2334,1.233,1.2327,1.2324,1.2361,1.2361,1.2386,1.2387,1.2387]}]]